Regional Weather Roundup
Issued by NWS Wakefield, VA

Home | Current Version | Previous Version | Text Only | Print | Product List | Glossary Off
Versions: 1 2 3 4 5 6 7 8 9 10 11 12 13 14 15 16 17 18 19 20 21 22 23 24 25 26 27 28 29 30 31 32 33 34 35 36 37

000
ASUS41 KAKQ 221410
RWRAKQ

REGIONAL WEATHER ROUNDUP
NATIONAL WEATHER SERVICE WAKEFIELD VA
1000 AM EDT WED OCT 22 2014

Note: "fair" indicates few or no clouds below 12,000 feet with no
significant weather and/or obstructions to visibility. * = Denotes
station may not report precipitation (e.g., rain,snow,etc.),
thunder or fog.

VAZ042-051-052>054-056-221500-
NORTHERN VIRGINIA

CITY           SKY/WX    TMP DP  RH WIND       PRES   REMARKS
WASH NATIONAL  LGT RAIN  56  50  80 N14       29.93R
DULLES         CLOUDY    53  49  86 NW15      29.95R
FORT BELVOIR   LGT RAIN  53  51  90 NW10      29.93R
QUANTICO       RAIN      53  49  86 N15G28    29.94R FOG
FREDERICKSBRG* RAIN      54  54 100 NW8       29.93R
STAFFORD*      RAIN      52  52 100 NW14      29.97S
WARRENTON      DRIZZLE   55  54  98 NW17      29.95R
CULPEPER*      LGT RAIN  55  50  82 NW7       29.97R
MANASSAS*      NOT AVBL
LEESBURG*      CLOUDY    54  52  94 N13G23    29.97R
WINCHESTER     CLOUDY    54  43  66 NW10G21   30.00R
FRONT ROYAL*   CLOUDY    52  45  76 N9G16     29.99R
LURAY*         PTSUNNY   55  46  71 NW15G22   29.99S
$$

VAZ048-049-060>072-079>083-221500-
CENTRAL AND SOUTH CENTRAL VIRGINIA...AND NORTH CENTRAL NORTH CAROLINA

CITY           SKY/WX    TMP DP  RH WIND       PRES   REMARKS
RICHMOND       LGT RAIN  54  51  90 NW16      29.91R
CHESTERFIELD*  CLOUDY    52  41  66 NW13      29.94R
PETERSBURG*    LGT RAIN  52  49  92 NW14      29.93S
HANOVER        LGT RAIN  52  51  97 NW9G18    29.94R
TAPPAHANNOCK*  LGT RAIN  55  49  82 W7        29.89S
CHARLOTTSVILLE PTSUNNY   55  45  68 NW12G17   29.97R
ORANGE*        RAIN      54  50  87 NW9       29.98R
LOUISA*        DRIZZLE   54  50  87 NW9       29.94R
FARMVILLE*     CLOUDY    54  46  76 W3        29.95S
CREWE*         CLOUDY    51  47  87 NW9       29.95S
FORT PICKETT*  CLOUDY    50  48  93 NW14      29.95R
LUNENBURG*     CLOUDY    51  48  90 NW5       29.96S
SOUTH HILL*    RAIN      52  50  93 NW7       30.02R
LAWRENCEVILLE* CLOUDY    51  49  92 NW6       29.94S
ROANOKE RAPIDS CLOUDY    54  46  76 NW15G22   29.94S
RALEIGH        MOSUNNY   55  38  52 NW10G18   30.00R
$$

VAZ088>098-221500-
SOUTHEAST VIRGINIA

CITY           SKY/WX    TMP DP  RH WIND       PRES   REMARKS
NORFOLK        LGT RAIN  54  51  90 NW8       29.84R
VIRGINIA BEACH CLOUDY    56  52  86 NW17G25   29.82F FOG
NORFOLK NAVAL  CLOUDY    56  52  86 NW16G24   29.85S
WEST POINT*    CLOUDY    57  52  84 NW10G16   29.88S
NEWPORT NEWS   CLOUDY    56  51  84 NW9G20    29.86R
LANGLEY AFB    CLOUDY    54  54 100 W14G21    29.85S
FORT EUSTIS    CLOUDY    55  55 100 NW14G24   29.85
WILLIAMSBURG*  SUNNY     55  54  94 NW12G20   29.88R
HR EXEC AP*    CLOUDY    52  48  87 NW9       29.88S
FRANKLIN*      CLOUDY    54  52  94 NW13G18   29.90R
WAKEFIELD      RAIN      53  50  89 W9        29.89S FOG
$$

VAZ020-022-025-037-045-221500-
WEST CENTRAL AND SOUTHWEST VIRGINIA

CITY           SKY/WX    TMP DP  RH WIND       PRES   REMARKS
STAUNTON*      MOSUNNY   54  43  66 NW10G20   30.03R
HOT SPRINGS VA CLOUDY    41  38  91 NW15G22   30.01F
LYNCHBURG      MOSUNNY   56  41  57 NW8       30.01S
DANVILLE       SUNNY     57  39  51 NW15G24   30.02R
SOUTH BOSTON*  NOT AVBL
MARTINSVILLE   SUNNY     56  40  56 NW15G22   30.08R
ROANOKE        MOSUNNY   52  38  58 N16G25    30.08R
BLACKSBURG     PTSUNNY   48  43  81 NW9       30.11R
DUBLIN*        CLOUDY    47  41  82 NW6G18    30.12R
MARION*        PTSUNNY   45  38  77 NW10G20   30.16R
HILLSVILLE*    CLOUDY    43  37  78 N15G22    30.09R
RICHLANDS*     CLOUDY    43  41  94 N3        30.16R FOG
WISE*          CLOUDY    41  41 100 N12       30.19R FOG
ABINGDON*      CLOUDY    46  39  78 NW5       30.17R
$$

MDZ021>025-VAZ099-100-221500-
SOUTHERN MARYLAND AND THE DELMARVA PENINSULA

CITY           SKY/WX    TMP DP  RH WIND       PRES   REMARKS
PATUXENT RIVER LGT RAIN  55  52  89 N8        29.85S FOG
BAY BRIDGE APT RAIN      54  54 100 N14G25    29.88S
LEONARDTOWN    CLOUDY    54  50  87 NW7       29.88S
DOVER          PTSUNNY   57  57 100 N13       29.82F
GEORGETOWN     CLOUDY    59  53  80 N14G26    29.83R
EASTON         LGT RAIN  55  55 100 N10       29.90R
CAMBRIDGE      CLOUDY    55  52  88 N10       29.84S VSB<1/4
SALISBURY      CLOUDY    61  55  82 N13       29.80F
OCEAN CITY     PTSUNNY   60  56  86 N15       29.78F
WALLOPS ISLAND CLOUDY    58  54  86 N13G20    29.79S
ACCOMACK*      CLOUDY    55  52  88 N6        29.79F
$$

NCZ012>017-030>032-221500-
EASTERN NORTH CAROLINA

CITY           SKY/WX    TMP DP  RH WIND       PRES   REMARKS
ELIZABETH CITY CLOUDY    57  50  77 NW15G22   29.86S
AHOSKIE*       PTSUNNY   54  48  78 NW6       29.91F
EDENTON*       CLOUDY    55  50  85 NW10G17   29.89S
CURRITUCK*     CLOUDY    56  50  80 W8G16     29.85S
KILL DEVIL HLS PTSUNNY   57  51  81 NW13G21   29.83S
MANTEO         CLOUDY    56  50  80 NW14G22   29.85S
CAPE HATTERAS  MOSUNNY   58  52  80 NW14G23   29.87R
TARBORO*       CLOUDY    55  47  74 NW10G18   29.95S
GOLDSBORO      SUNNY     57  47  71 NW12G17   29.95R
WASHINGTON     SUNNY     56  47  71 NW9       29.93S
GREENVILLE     MOSUNNY   57  45  62 NW9G18    29.96R
NEW BERN       SUNNY     60  47  61 NW14      29.95R
WILMINGTON     SUNNY     57  44  62 N16       29.98S
$$

VAZ048-221500-
ELSEWHERE

CITY           SKY/WX    TMP DP  RH WIND       PRES   REMARKS
HARRISBURG PA  LGT RAIN  54  49  83 N13       29.96R
BALTIMORE      RAIN      53  51  93 N9        29.91R FOG
ANNAPOLIS      LGT RAIN  56  53  90 N15       29.89R
ANDREWS AFB    LGT RAIN  53  52  96 N14       29.90S
WILMINGTON DE  CLOUDY    56  52  86 N15       29.89R
PHILADELPHIA   CLOUDY    58  52  80 NE15G29   29.88R
WILDWOOD NJ*   CLOUDY    57  52  82 N13G23    29.82F
ATLANTIC CITY  CLOUDY    56  53  90 N17G25    29.83R
HENDERSON NC   MOSUNNY   54  41  61 NW7G18    29.99R
GREENSBORO     MOSUNNY   54  38  54 NW8       30.04R
ROCKY MOUNT    MOSUNNY   56  45  66 NW14G22   29.96R
FAYETTEVILLE   SUNNY     58  39  49 NW18G26   30.00R
CHARLOTTE      SUNNY     55  36  48 N9G21     30.09R
$$

VAZ100-221500-
MARINE

STATION/POSITION TIME  TEMP    WIND        PRES    WAVE   SWELL
                       AIR SEA DIR/SP/G            HT/PER HT/PER
                 (UTC) (F)     (DEG/KT/KT) (MB)    (FT/S) (FT/S)
44066 TX TWR #4  1400   59 66  340/ 12/ 19 1007.7R
CAPE MAY NJ      1400   57 67   10/  7/ 14 1009.2F
LEWES DE         1400   59 63   20/ 21/ 27 1009.6R
15NM E FENWICK I 1400   61 66   10/ 23/ 27 1007.5F   4/ 9   2/ 9
OCEAN-CITY-INLET 1400   60 65  360/ 15/ 18 1008.1F
WACHAPREAGUE VA  1400   56 63  340/  6/  9 1008.8F
THOMAS POINT MD  1400   55 63  360/ 23/ 25 1012.4R
GOOSES REEF MD   1400   58      10/ 21/ 25 1011.3F
COVE POINT MD    1400   57      10/ 21/ 28 1010.7R
SOLOMONS ISLAND  1400      65                N/A
BISHOPS HEAD MD  1400   56 59  350/  7/ 12 1009.7S
PINEY POINT MD   1400          360/ 16/ 20   N/A
POTOMAC MD       1400   57     350/ 14/ 19 1010.1R
CAMBRIDGE MD     1400   56 63   10/ 15/ 18 1010.3S
LEWISETTA VA     1400   57 63  350/ 11/ 15 1010.6S
RAPPAHANNOCK LGT 1400          350/ 23/ 25 1009.5S
STINGRAY PT      1400   57     320/ 16/ 21 1010.3F
YORK RVR RNG VA  1400   56     330/ 19/ 23 1009.7F
YORKTOWN VA      1400   56 67  320/ 19/ 23 1010.3S
JAMESTOWN VA     1400   54     340/ 16/ 19   N/A
DOMINION TERM VA 1400   56     330/  6/ 14 1010.6R
KIPTOPEKE VA     1400      69  340/ 24/ 28   N/A
CHES BAY BRIDGE  1400   56 67  270/ 20/ 22 1009.4F
CHESAPEAKE LGHT  1300   56     290/ 23/ 25 1009.9R
WILLOUBY STN VA  1400   53     310/ 18/ 21 1009.2S
S CRANEY ISL VA  1400          260/  8/ 13 1010.4R
CAPE HENRY BUOY  1300      69                N/A     5/ 5
1ST LANDING BUOY 1400   57     280/ 21/ 25 1009.3F
CAPE CHARLES BUO 1400      68                N/A     4/ 4   2/ 8
64NM E OF VA BCH 1400   62 69  270/ 21/ 27 1007.6S   3/ 6   2/ 7
DUCK PIER NC     1400   56 68  300/ 20/ 24 1009.5S
44100 DUCK FRF   1400      71                N/A     4/ 4   2/11
44056 DUCK FRF   1400                        N/A     3/11   2/11
OREGON INLET NC  1400   58 67  290/ 14/ 20 1010.3S
HATTERAS NC      1400   57 70  310/ 19/ 23 1012.0R
DIAMOND SHLS NC  1400   62     300/ 21/ 25 1010.9R   4/ 5   2/10
CAPE LOOKOUT NC  1300   57     320/ 14/ 17 1012.9R
$$



USA.gov is the U.S. government's official web portal to all federal, state and local government web resources and services.